| time (UTC) | temp F | wind direction | speed MPH | gust MPH | rain 1hr in | rain 24hr in | rain mn in | humidity % | barometer mb |
| 20260508090903 | 62 | 141 | 6.0 | 11.0 | 0.00 | 0.00 | 0.00 | 66 | 1013.2 |
| 20260508090003 | 60 | 147 | 7.0 | 11.0 | 0.00 | 0.00 | 0.00 | 68 | 1013.3 |
| 20260508085617 | 60 | 146 | 7.0 | 11.0 | 0.00 | 0.00 | 0.00 | 69 | 1013.2 |
| 20260508084503 | 60 | 142 | 9.0 | 14.0 | 0.00 | 0.00 | 0.00 | 72 | 1013.1 |
| 20260508083603 | 60 | 133 | 8.0 | 15.0 | 0.00 | 0.00 | 0.00 | 71 | 1013.0 |
| 20260508082703 | 59 | 151 | 6.0 | 13.0 | 0.00 | 0.00 | 0.00 | 71 | 1013.1 |
| 20260508081803 | 59 | 164 | 5.0 | 8.0 | 0.00 | 0.00 | 0.00 | 73 | 1012.9 |
| 20260508080903 | 60 | 176 | 4.0 | 9.0 | 0.00 | 0.00 | 0.00 | 72 | 1012.8 |
| 20260508080003 | 58 | 161 | 4.0 | 8.0 | 0.00 | 0.00 | 0.00 | 74 | 1013.1 |
| 20260508075403 | 58 | 172 | 5.0 | 8.0 | 0.00 | 0.00 | 0.00 | 75 | 1012.8 |
| 20260508074503 | 58 | 173 | 4.0 | 8.0 | 0.00 | 0.00 | 0.00 | 73 | 1013.2 |
| 20260508073603 | 58 | 167 | 3.0 | 8.0 | 0.00 | 0.00 | 0.00 | 75 | 1012.9 |
| 20260508072703 | 57 | 178 | 4.0 | 8.0 | 0.00 | 0.00 | 0.00 | 77 | 1013.0 |
| 20260508071803 | 57 | 164 | 3.0 | 8.0 | 0.00 | 0.00 | 0.00 | 78 | 1012.8 |
| 20260508070903 | 56 | 166 | 3.0 | 7.0 | 0.00 | 0.00 | 0.00 | 80 | 1012.8 |
| 20260508070003 | 56 | 159 | 2.0 | 6.0 | 0.00 | 0.00 | 0.00 | 81 | 1013.0 |
| 20260508065403 | 56 | 160 | 2.0 | 6.0 | 0.00 | 0.00 | 0.00 | 81 | 1012.9 |
| 20260508064503 | 56 | 172 | 2.0 | 4.0 | 0.00 | 0.00 | 0.00 | 82 | 1012.8 |
| 20260508063603 | 55 | 199 | 3.0 | 7.0 | 0.00 | 0.00 | 0.00 | 83 | 1012.7 |
| 20260508062703 | 55 | 201 | 4.0 | 7.0 | 0.00 | 0.00 | 0.00 | 83 | 1012.8 |
| 20260508061803 | 54 | 205 | 6.0 | 9.0 | 0.00 | 0.00 | 0.00 | 84 | 1012.7 |
| 20260508060903 | 55 | 209 | 5.0 | 9.0 | 0.00 | 0.00 | 0.00 | 83 | 1012.4 |
| 20260508060003 | 55 | 203 | 5.0 | 7.0 | 0.00 | 0.00 | 0.00 | 83 | 1012.3 |
| 20260508055403 | 55 | 197 | 4.0 | 7.0 | 0.00 | 0.00 | 0.00 | 83 | 1012.3 |
| 20260508054503 | 55 | 158 | 3.0 | 4.0 | 0.00 | 0.00 | 0.00 | 82 | 1012.0 |
| 20260508053603 | 55 | 114 | 1.0 | 3.0 | 0.00 | 0.00 | 0.00 | 82 | 1011.7 |
| 20260508052918 | 55 | 108 | 0.0 | 2.0 | 0.00 | 0.00 | 0.00 | 82 | 1011.5 |
| 20260508051803 | 55 | 108 | 1.0 | 2.0 | 0.00 | 0.00 | 0.00 | 82 | 1010.9 |
| 20260508050903 | 54 | 108 | 1.0 | 3.0 | 0.00 | 0.00 | 0.00 | 83 | 1011.6 |
| 20260508050003 | 54 | 108 | 1.0 | 3.0 | 0.00 | 0.00 | 0.00 | 82 | 1011.2 |
| 20260508045617 | 55 | 108 | 1.0 | 2.0 | 0.00 | 0.00 | 0.00 | 82 | 1011.5 |
| 20260508044503 | 54 | 108 | 0.0 | 2.0 | 0.00 | 0.00 | 0.00 | 84 | 1011.6 |
| 20260508043603 | 54 | 109 | 1.0 | 2.0 | 0.00 | 0.00 | 0.00 | 84 | 1011.8 |
| 20260508042703 | 54 | 109 | 2.0 | 3.0 | 0.00 | 0.00 | 0.00 | 85 | 1011.9 |
| 20260508041803 | 54 | 114 | 2.0 | 3.0 | 0.00 | 0.00 | 0.00 | 85 | 1012.0 |
| 20260508040903 | 54 | 114 | 2.0 | 3.0 | 0.00 | 0.00 | 0.00 | 85 | 1012.1 |
| 20260508040003 | 54 | 124 | 2.0 | 3.0 | 0.00 | 0.00 | 0.00 | 85 | 1012.2 |
| 20260508035403 | 54 | 125 | 2.0 | 2.0 | 0.00 | 0.00 | 0.00 | 85 | 1012.0 |
| 20260508034503 | 55 | 108 | 1.0 | 2.0 | 0.00 | 0.00 | 0.00 | 83 | 1012.0 |
| 20260508033603 | 55 | 123 | 1.0 | 3.0 | 0.00 | 0.00 | 0.00 | 83 | 1011.9 |
| 20260508032703 | 55 | 134 | 2.0 | 4.0 | 0.00 | 0.00 | 0.00 | 83 | 1011.9 |
| 20260508032016 | 55 | 135 | 2.0 | 3.0 | 0.00 | 0.00 | 0.00 | 83 | 1012.1 |
| 20260508030903 | 55 | 130 | 2.0 | 4.0 | 0.00 | 0.00 | 0.00 | 83 | 1012.0 |
| 20260508030003 | 55 | 134 | 3.0 | 6.0 | 0.00 | 0.00 | 0.00 | 83 | 1012.2 |
| 20260508025403 | 55 | 140 | 4.0 | 6.0 | 0.00 | 0.00 | 0.00 | 83 | 1012.3 |
| 20260508024503 | 55 | 140 | 4.0 | 7.0 | 0.00 | 0.00 | 0.00 | 83 | 1012.2 |
| 20260508023817 | 54 | 133 | 4.0 | 6.0 | 0.00 | 0.00 | 0.00 | 84 | 1012.0 |
| 20260508022703 | 54 | 137 | 3.0 | 4.0 | 0.00 | 0.00 | 0.00 | 84 | 1011.9 |
| 20260508021803 | 55 | 120 | 2.0 | 4.0 | 0.00 | 0.00 | 0.00 | 82 | 1011.6 |
| 20260508020903 | 55 | 145 | 2.0 | 6.0 | 0.00 | 0.00 | 0.00 | 83 | 1011.6 |
| 20260508020217 | 55 | 159 | 2.0 | 4.0 | 0.00 | 0.00 | 0.00 | 82 | 1011.5 |
| 20260508015403 | 56 | 168 | 2.0 | 4.0 | 0.00 | 0.00 | 0.00 | 80 | 1011.6 |
| 20260508014503 | 55 | 155 | 2.0 | 4.0 | 0.00 | 0.00 | 0.00 | 80 | 1011.7 |
| 20260508013603 | 55 | 158 | 4.0 | 8.0 | 0.00 | 0.00 | 0.00 | 80 | 1011.9 |
| 20260508012703 | 55 | 153 | 4.0 | 7.0 | 0.00 | 0.00 | 0.00 | 81 | 1012.0 |
| 20260508011803 | 55 | 154 | 3.0 | 6.0 | 0.00 | 0.00 | 0.00 | 79 | 1011.9 |
| 20260508011117 | 56 | 147 | 3.0 | 4.0 | 0.00 | 0.00 | 0.00 | 79 | 1011.8 |
| 20260508010218 | 56 | 141 | 3.0 | 3.0 | 0.00 | 0.00 | 0.00 | 78 | 1011.7 |
| 20260508005403 | 56 | 149 | 2.0 | 3.0 | 0.00 | 0.00 | 0.00 | 77 | 1011.8 |
| 20260508004503 | 56 | 143 | 2.0 | 3.0 | 0.00 | 0.00 | 0.00 | 76 | 1011.9 |
| 20260508003603 | 56 | 132 | 1.0 | 2.0 | 0.00 | 0.00 | 0.00 | 76 | 1012.0 |
| 20260508002703 | 57 | 132 | 2.0 | 3.0 | 0.00 | 0.00 | 0.00 | 76 | 1012.3 |
| 20260508001803 | 57 | 130 | 1.0 | 2.0 | 0.00 | 0.00 | 0.00 | 74 | 1012.5 |
| 20260508000903 | 57 | 134 | 2.0 | 4.0 | 0.00 | 0.00 | 0.00 | 75 | 1012.8 |
| 20260508000007 | 57 | 139 | 3.0 | 6.0 | 0.00 | 0.00 | 0.00 | 75 | 1012.9 |
| 20260507235403 | 56 | 150 | 4.0 | 6.0 | 0.00 | 0.00 | 0.00 | 75 | 1012.9 |
| 20260507234503 | 57 | 157 | 4.0 | 8.0 | 0.00 | 0.00 | 0.00 | 74 | 1013.1 |
| 20260507233816 | 57 | 150 | 5.0 | 8.0 | 0.00 | 0.00 | 0.00 | 73 | 1013.1 |
| 20260507232703 | 57 | 140 | 4.0 | 8.0 | 0.00 | 0.00 | 0.00 | 72 | 1013.3 |
| 20260507231803 | 57 | 147 | 4.0 | 6.0 | 0.00 | 0.00 | 0.00 | 71 | 1013.0 |
| 20260507230903 | 58 | 144 | 4.0 | 6.0 | 0.00 | 0.00 | 0.00 | 71 | 1013.0 |
| 20260507230003 | 58 | 146 | 4.0 | 6.0 | 0.00 | 0.00 | 0.00 | 70 | 1013.0 |
| 20260507225617 | 58 | 153 | 4.0 | 6.0 | 0.00 | 0.00 | 0.00 | 70 | 1012.6 |
| 20260507224503 | 58 | 153 | 4.0 | 6.0 | 0.00 | 0.00 | 0.00 | 69 | 1013.0 |
| 20260507223603 | 59 | 158 | 2.0 | 4.0 | 0.00 | 0.00 | 0.00 | 67 | 1012.8 |
| 20260507222703 | 59 | 157 | 2.0 | 6.0 | 0.00 | 0.00 | 0.00 | 67 | 1012.6 |
| 20260507221803 | 60 | 180 | 3.0 | 6.0 | 0.00 | 0.00 | 0.00 | 65 | 1012.8 |
| 20260507220903 | 60 | 182 | 3.0 | 8.0 | 0.00 | 0.00 | 0.00 | 65 | 1012.7 |
| 20260507220003 | 60 | 179 | 3.0 | 4.0 | 0.00 | 0.00 | 0.00 | 64 | 1012.9 |
| 20260507215617 | 60 | 173 | 2.0 | 4.0 | 0.00 | 0.00 | 0.00 | 63 | 1012.8 |
| 20260507214503 | 60 | 188 | 4.0 | 8.0 | 0.00 | 0.00 | 0.00 | 63 | 1012.9 |
| 20260507213818 | 61 | 198 | 4.0 | 8.0 | 0.00 | 0.00 | 0.00 | 62 | 1012.8 |
| 20260507212917 | 61 | 193 | 4.0 | 8.0 | 0.00 | 0.00 | 0.00 | 62 | 1012.9 |
| 20260507211803 | 61 | 196 | 4.0 | 9.0 | 0.00 | 0.00 | 0.00 | 61 | 1012.6 |
| 20260507210903 | 62 | 195 | 5.0 | 13.0 | 0.00 | 0.00 | 0.00 | 60 | 1012.9 |
| 20260507210217 | 62 | 194 | 5.0 | 13.0 | 0.00 | 0.00 | 0.00 | 60 | 1012.9 |
| 20260507205403 | 62 | 193 | 5.0 | 11.0 | 0.00 | 0.00 | 0.00 | 59 | 1012.6 |
| 20260507204503 | 62 | 198 | 5.0 | 10.0 | 0.00 | 0.00 | 0.00 | 59 | 1012.6 |
| 20260507203603 | 63 | 206 | 6.0 | 11.0 | 0.00 | 0.00 | 0.00 | 58 | 1012.3 |
| 20260507202703 | 63 | 191 | 6.0 | 11.0 | 0.00 | 0.00 | 0.00 | 58 | 1012.4 |
| 20260507201803 | 63 | 185 | 6.0 | 13.0 | 0.00 | 0.00 | 0.00 | 57 | 1012.2 |
| 20260507200903 | 64 | 188 | 5.0 | 11.0 | 0.00 | 0.00 | 0.00 | 56 | 1012.4 |
| 20260507200003 | 64 | 183 | 6.0 | 14.0 | 0.00 | 0.00 | 0.00 | 56 | 1012.1 |
| 20260507195403 | 64 | 182 | 6.0 | 14.0 | 0.00 | 0.00 | 0.00 | 56 | 1011.9 |
| 20260507194717 | 64 | 191 | 6.0 | 11.0 | 0.00 | 0.00 | 0.00 | 56 | 1012.0 |
| 20260507193603 | 65 | 191 | 6.0 | 11.0 | 0.00 | 0.00 | 0.00 | 55 | 1011.7 |
| 20260507192703 | 65 | 194 | 7.0 | 15.0 | 0.00 | 0.00 | 0.00 | 55 | 1011.7 |
| 20260507191803 | 65 | 190 | 5.0 | 10.0 | 0.00 | 0.00 | 0.00 | 55 | 1011.5 |
| 20260507191117 | 65 | 190 | 5.0 | 10.0 | 0.00 | 0.00 | 0.00 | 54 | 1011.4 |
| 20260507190004 | 66 | 200 | 6.0 | 13.0 | 0.00 | 0.00 | 0.00 | 53 | 1011.0 |
| 20260507185403 | 66 | 190 | 5.0 | 13.0 | 0.00 | 0.00 | 0.00 | 53 | 1011.0 |
| 20260507184503 | 66 | 190 | 5.0 | 11.0 | 0.00 | 0.00 | 0.00 | 53 | 1010.9 |
| 20260507183603 | 66 | 194 | 6.0 | 15.0 | 0.00 | 0.00 | 0.00 | 53 | 1010.8 |
| 20260507182703 | 67 | 201 | 6.0 | 11.0 | 0.00 | 0.00 | 0.00 | 53 | 1010.6 |
| 20260507182017 | 67 | 204 | 7.0 | 15.0 | 0.00 | 0.00 | 0.00 | 53 | 1010.5 |
| 20260507180903 | 67 | 193 | 6.0 | 15.0 | 0.00 | 0.00 | 0.00 | 53 | 1010.4 |
| 20260507180003 | 67 | 191 | 5.0 | 10.0 | 0.00 | 0.00 | 0.00 | 53 | 1010.5 |
| 20260507175403 | 67 | 205 | 7.0 | 13.0 | 0.00 | 0.00 | 0.00 | 53 | 1010.3 |
| 20260507174717 | 68 | 207 | 8.0 | 15.0 | 0.00 | 0.00 | 0.00 | 52 | 1010.4 |
| 20260507173603 | 68 | 204 | 9.0 | 16.0 | 0.00 | 0.00 | 0.00 | 52 | 1010.1 |
| 20260507172917 | 68 | 209 | 8.0 | 16.0 | 0.00 | 0.00 | 0.00 | 51 | 1010.0 |
| 20260507171803 | 68 | 205 | 9.0 | 16.0 | 0.00 | 0.00 | 0.00 | 51 | 1009.8 |
| 20260507170903 | 69 | 185 | 7.0 | 16.0 | 0.00 | 0.00 | 0.00 | 51 | 1010.1 |
| 20260507170003 | 69 | 198 | 8.0 | 18.0 | 0.00 | 0.00 | 0.00 | 51 | 1009.8 |
| 20260507165403 | 69 | 194 | 7.0 | 18.0 | 0.00 | 0.00 | 0.00 | 49 | 1009.7 |
| 20260507164503 | 69 | 203 | 9.0 | 17.0 | 0.00 | 0.00 | 0.00 | 49 | 1009.8 |
| 20260507163603 | 69 | 197 | 5.0 | 15.0 | 0.00 | 0.00 | 0.00 | 48 | 1009.6 |
| 20260507162703 | 69 | 173 | 4.0 | 8.0 | 0.00 | 0.00 | 0.00 | 48 | 1009.5 |
| 20260507161803 | 69 | 193 | 5.0 | 9.0 | 0.00 | 0.00 | 0.00 | 49 | 1009.6 |
| 20260507160903 | 69 | 205 | 6.0 | 13.0 | 0.00 | 0.00 | 0.00 | 47 | 1009.6 |
| 20260507160217 | 71 | 199 | 4.0 | 13.0 | 0.00 | 0.00 | 0.00 | 45 | 1009.5 |
| 20260507155403 | 69 | 194 | 4.0 | 11.0 | 0.00 | 0.00 | 0.00 | 45 | 1009.6 |
| 20260507154503 | 70 | 194 | 5.0 | 14.0 | 0.00 | 0.00 | 0.00 | 45 | 1009.6 |
| 20260507153603 | 70 | 207 | 3.0 | 8.0 | 0.00 | 0.00 | 0.00 | 42 | 1009.6 |
| 20260507152703 | 70 | 187 | 2.0 | 6.0 | 0.00 | 0.00 | 0.00 | 41 | 1009.6 |
| 20260507151803 | 69 | 186 | 5.0 | 10.0 | 0.00 | 0.00 | 0.00 | 43 | 1009.7 |
| 20260507151117 | 71 | 180 | 4.0 | 10.0 | 0.00 | 0.00 | 0.00 | 43 | 1009.7 |
| 20260507150003 | 69 | 146 | 5.0 | 9.0 | 0.00 | 0.00 | 0.00 | 44 | 1010.0 |
| 20260507145403 | 69 | 176 | 5.0 | 11.0 | 0.00 | 0.00 | 0.00 | 45 | 1009.9 |
| 20260507144503 | 71 | 171 | 3.0 | 10.0 | 0.00 | 0.00 | 0.00 | 44 | 1010.0 |
| 20260507143817 | 69 | 150 | 2.0 | 6.0 | 0.00 | 0.00 | 0.00 | 46 | 1009.8 |
| 20260507142703 | 68 | 160 | 5.0 | 11.0 | 0.00 | 0.00 | 0.00 | 47 | 1010.2 |
| 20260507141803 | 68 | 173 | 6.0 | 15.0 | 0.00 | 0.00 | 0.00 | 49 | 1010.0 |
| 20260507140903 | 68 | 206 | 6.0 | 13.0 | 0.00 | 0.00 | 0.00 | 47 | 1010.4 |
| 20260507140003 | 69 | 209 | 7.0 | 14.0 | 0.00 | 0.00 | 0.00 | 46 | 1010.4 |
| 20260507135403 | 69 | 197 | 6.0 | 14.0 | 0.00 | 0.00 | 0.00 | 48 | 1010.5 |
| 20260507134503 | 69 | 187 | 6.0 | 14.0 | 0.00 | 0.00 | 0.00 | 48 | 1010.4 |
| 20260507133603 | 69 | 188 | 5.0 | 10.0 | 0.00 | 0.00 | 0.00 | 48 | 1010.5 |
| 20260507132703 | 69 | 205 | 5.0 | 16.0 | 0.00 | 0.00 | 0.00 | 48 | 1010.4 |
| 20260507131803 | 70 | 177 | 4.0 | 8.0 | 0.00 | 0.00 | 0.00 | 46 | 1010.4 |
| 20260507131117 | 68 | 133 | 7.0 | 16.0 | 0.00 | 0.00 | 0.00 | 45 | 1010.5 |
| 20260507130003 | 71 | 157 | 5.0 | 11.0 | 0.00 | 0.00 | 0.00 | 43 | 1010.6 |
| 20260507125403 | 71 | 170 | 5.0 | 13.0 | 0.00 | 0.00 | 0.00 | 45 | 1010.7 |
| 20260507124503 | 69 | 167 | 6.0 | 23.0 | 0.00 | 0.00 | 0.00 | 46 | 1010.8 |
| 20260507123818 | 70 | 183 | 7.0 | 23.0 | 0.00 | 0.00 | 0.00 | 46 | 1010.7 |
| 20260507122705 | 69 | 146 | 8.0 | 15.0 | 0.00 | 0.00 | 0.00 | 47 | 1011.0 |
| 20260507121803 | 69 | 142 | 10.0 | 17.0 | 0.00 | 0.00 | 0.00 | 44 | 1011.0 |
| 20260507120903 | 68 | 141 | 10.0 | 17.0 | 0.00 | 0.00 | 0.00 | 44 | 1011.2 |
| 20260507120003 | 68 | 143 | 9.0 | 18.0 | 0.00 | 0.00 | 0.00 | 47 | 1011.0 |
| 20260507115403 | 69 | 155 | 8.0 | 17.0 | 0.00 | 0.00 | 0.00 | 46 | 1011.0 |
| 20260507114503 | 67 | 147 | 10.0 | 17.0 | 0.00 | 0.00 | 0.00 | 49 | 1011.3 |
| 20260507113603 | 67 | 141 | 7.0 | 14.0 | 0.00 | 0.00 | 0.00 | 51 | 1011.5 |
| 20260507112703 | 66 | 136 | 10.0 | 15.0 | 0.00 | 0.00 | 0.00 | 52 | 1011.5 |
| 20260507111803 | 67 | 146 | 7.0 | 15.0 | 0.00 | 0.00 | 0.00 | 54 | 1011.6 |
| 20260507110903 | 66 | 151 | 7.0 | 14.0 | 0.00 | 0.00 | 0.00 | 55 | 1011.6 |
| 20260507110003 | 65 | 151 | 9.0 | 16.0 | 0.00 | 0.00 | 0.00 | 56 | 1011.7 |
| 20260507105617 | 66 | 149 | 8.0 | 15.0 | 0.00 | 0.00 | 0.00 | 59 | 1011.8 |
| 20260507104503 | 65 | 144 | 8.0 | 14.0 | 0.00 | 0.00 | 0.00 | 56 | 1011.7 |
| 20260507103603 | 67 | 156 | 7.0 | 15.0 | 0.00 | 0.00 | 0.00 | 59 | 1011.9 |
| 20260507102703 | 65 | 154 | 5.0 | 11.0 | 0.00 | 0.00 | 0.00 | 62 | 1011.8 |
| 20260507101803 | 66 | 133 | 5.0 | 13.0 | 0.00 | 0.00 | 0.00 | 59 | 1011.8 |
| 20260507100903 | 64 | 138 | 4.0 | 9.0 | 0.00 | 0.00 | 0.00 | 61 | 1011.9 |
| 20260507100217 | 65 | 121 | 3.0 | 9.0 | 0.00 | 0.00 | 0.00 | 61 | 1012.0 |
| 20260507095403 | 64 | 139 | 4.0 | 10.0 | 0.00 | 0.00 | 0.00 | 60 | 1012.1 |
| 20260507094503 | 65 | 124 | 2.0 | 10.0 | 0.00 | 0.00 | 0.00 | 59 | 1012.1 |
| 20260507093603 | 63 | 146 | 3.0 | 8.0 | 0.00 | 0.00 | 0.00 | 60 | 1012.2 |
| 20260507092916 | 64 | 147 | 2.0 | 7.0 | 0.00 | 0.00 | 0.00 | 60 | 1012.1 |
| 20260507091803 | 62 | 116 | 2.0 | 6.0 | 0.00 | 0.00 | 0.00 | 62 | 1012.3 |